Location: Valdosta
(30.8330°N, 83.2790°W)
Time: 00:31:39
(UTC-04:00)

Daily predictions for brighter satellites

Satellite Brightness Start Highest point End
(mag) Time Altitude Azimuth Time Altitude Azimuth Time Altitude Azimuth
Cosmos 2333 Rocket 3.0 00:02:40 10° N 00:07:11 44° NNE 00:07:11 44° NNE
Nadezhda 1 Rocket 4.1 00:07:02 10° N 00:12:27 66° NW 00:12:27 66° NW
SL-16 R/B 4.1 00:10:06 10° NNE 00:13:41 20° NE 00:13:41 20° NE
COSMOS 2428 3.8 00:14:23 10° NW 00:18:35 37° WNW 00:18:35 37° WNW
Cosmos 2297 Rocket 3.0 00:25:45 47° N 00:25:45 47° N 00:29:43 10° NNE
Cosmos 1709 Rocket 4.3 00:27:29 61° N 00:27:29 61° N 00:32:28 10° N
ATLAS 2AS CENTAUR R/B 3.0 00:32:38 64° W 00:33:26 68° WNW 00:41:22 10° NNE
H-2A R/B 4.1 00:41:19 20° WNW 00:41:19 20° WNW 00:44:16 10° NW
Cosmos 2219 Rocket 3.3 00:34:45 10° NNW 00:38:24 40° NW 00:38:24 40° NW
COSMOS 2455 4.1 00:37:28 10° N 00:42:07 33° NE 00:42:07 33° NE
Cosmos 2181 Rocket 4.5 00:45:46 10° N 00:50:50 59° NNW 00:50:50 59° NNW
ATLAS 3B R/B 3.3 00:56:08 10° NNW 01:02:13 46° NE 01:02:13 46° NE
Cosmos 2237 Rocket 3.6 01:01:49 10° NNW 01:05:04 33° NW 01:05:04 33° NW
FALCON 9 R/B 3.1 00:57:44 10° WNW 01:09:35 60° NW 01:09:35 60° NW
H-2A ROCKET BODY 3.7 00:33:08 10° W 01:21:48 79° SSW 01:23:22 68° SE
Cosmos 2263 Rocket 4.1 01:51:58 22° ENE 01:51:58 22° ENE 01:54:23 10° NE
Lacrosse 4 Rocket 4.3 01:50:19 10° NNW 01:50:55 14° NNW 01:50:55 14° NNW
SL-16 R/B 4.0 01:53:06 10° NW 01:55:32 25° NW 01:55:32 25° NW
CZ-2C R/B 4.2 02:11:35 46° N 02:11:35 46° N 02:15:33 10° N
CZ-3 Stage 3 4.0 01:48:37 10° W 02:09:53 62° W 02:09:53 62° W
CZ-4C R/B 3.9 02:16:04 10° NNW 02:22:53 41° NE 02:26:09 28° ESE
Cosmos 1943 4.4 02:19:03 10° N 02:23:36 37° NE 02:23:36 37° NE
CZ-2C R/B 4.3 02:20:47 10° N 02:23:38 27° NNW 02:23:38 27° NNW
Cosmos 1607 4.4 02:43:49 10° NNW 02:48:30 55° NNW 02:48:30 55° NNW
USA 238 DEB 4.3 02:48:40 10° NW 02:53:37 45° WNW 02:53:37 45° WNW
USA 238 4.3 02:48:46 10° NW 02:53:45 46° WNW 02:53:45 46° WNW
Centaur AC-119 4.4 03:00:18 67° S 03:00:29 67° S 03:29:13 10° ESE
NPP 4.2 03:02:29 10° NNE 03:06:51 56° NE 03:06:51 56° NE
USA 234 3.8 03:04:55 10° ESE 03:11:15 55° NE 03:17:35 10° NNW
RESURS DK-1 4.4 03:14:33 26° N 03:14:33 26° N 03:16:29 10° NNE
Iridium 4 Rocket 4.3 03:09:15 10° N 03:12:32 46° NNE 03:12:32 46° NNE
ARIANE 5 R/B 4.1 03:14:11 10° NE 03:18:12 24° E 03:18:18 24° E
ERS-2 4.5 03:17:58 10° NNE 03:19:28 23° NNE 03:19:28 23° NNE
Okean 1 Rocket 4.5 03:23:13 35° ENE 03:23:13 35° ENE 03:26:23 10° NNE
CBERS-1 4.3 03:21:01 10° NNE 03:25:21 64° NNE 03:25:21 64° NNE
NOSS 3-2 (C) 4.1 03:21:53 10° NNW 03:29:38 79° ENE 03:34:29 27° SE
Cosmos 1844 Rocket 3.2 03:31:31 49° ESE 03:31:36 49° ESE 03:37:03 10° NNE
CZ-2D R/B 3.7 03:28:35 10° NE 03:33:06 26° E 03:34:28 24° ESE
Cosmos 2263 Rocket 3.5 03:33:39 28° WNW 03:33:39 28° WNW 03:38:10 10° N
Meteor 1-25 Rocket 4.2 03:35:22 75° NW 03:35:22 75° NW 03:40:46 10° N
GP-B 3.9 03:33:40 10° N 03:37:07 51° NNE 03:37:07 51° NNE
Cosmos 1339 Rocket 4.4 03:32:17 10° NNW 03:37:57 65° WNW 03:37:57 65° WNW
OAO 2 Rocket 4.2 03:40:58 41° ESE 03:40:58 41° ESE 03:44:16 10° ESE
SL-08 R/B 3.7 03:41:41 62° NNW 03:41:41 62° NNW 03:45:47 10° NNW
COSMOS 2406 4.2 03:38:02 10° N 03:43:32 45° ENE 03:47:22 19° SE
Cosmos 1190 Rocket 4.1 03:41:39 10° N 03:46:51 67° ENE 03:47:23 62° ESE
Cosmos 2278 Rocket 3.5 03:46:40 27° SE 03:48:04 31° ESE 03:52:59 10° NE
Cosmos 2056 Rocket 4.4 03:48:43 36° NW 03:48:43 36° NW 03:53:04 10° N
IRS-1C 4.2 03:48:11 10° N 03:53:23 63° WNW 03:53:23 63° WNW
NOSS 3-2 (A) 4.0 03:46:55 10° NW 03:54:30 61° WSW 03:56:21 50° SSW
NOSS 2-2 (D) 4.3 03:55:43 44° E 03:55:43 44° E 03:59:21 10° NE
Cosmos 1535 Rocket 4.3 03:56:38 66° SW 03:57:28 78° W 04:03:42 10° N
Spot 4 Rocket 3.9 03:53:56 10° N 03:59:05 80° WNW 03:59:15 79° WSW
Tiangong 1 3.8 03:59:17 18° N 03:59:43 19° NNE 04:01:59 10° ENE
Cosmos 1809 Rocket 4.3 04:00:04 64° SSW 04:01:02 80° W 04:07:11 10° N
Cosmos 1536 3.7 04:04:07 42° ESE 04:04:20 42° E 04:08:12 10° NNE
Cosmos 407 Rocket 3.5 03:59:26 10° NNW 04:04:37 80° ENE 04:05:49 54° SSE
NOSS 2-2 (C) 3.5 04:09:51 72° E 04:09:51 72° E 04:13:59 10° NNE
Cosmos 676 Rocket 4.3 04:04:55 10° N 04:10:03 64° ENE 04:12:41 28° SE
CZ-4C R/B 3.4 04:04:39 10° NW 04:11:13 39° WSW 04:11:13 39° WSW
USA 161 4.1 04:16:08 15° NNW 04:16:08 15° NNW 04:16:46 10° NNW
SL-27 R/B 3.1 04:10:50 10° N 04:13:49 54° NNE 04:13:49 54° NNE
Meteor 2-21 4.4 04:13:34 53° WSW 04:14:36 60° W 04:20:37 10° N
Gbstr 26 Del rocket 3.4 04:16:43 45° NW 04:16:43 45° NW 04:20:10 10° NNE
Meteor 2-16 Rocket 4.4 04:15:38 45° S 04:17:42 89° W 04:23:53 10° N
IRS-1D 3.3 04:14:58 10° N 04:20:02 81° WNW 04:20:59 59° SSW
H-2A R/B 3.9 04:18:33 35° WSW 04:21:59 48° SSW 05:05:27 10° SE
OTV 4 2.2 04:22:22 31° NNE 04:22:22 31° NNE 04:24:48 10° E
UNKNOWN OBJECT B 3.5 04:18:15 10° NNE 04:22:15 53° E 04:23:04 44° SE
Resurs 1-4 Rocket 2.0 04:19:23 10° NNE 04:24:43 88° ESE 04:26:23 46° SSW
Cosmos 1867 4.2 04:19:53 10° NW 04:23:54 36° W 04:23:54 36° W
MINOTAUR IV R/B 4.5 04:26:27 65° WSW 04:26:53 71° WNW 04:31:23 10° NNE
Meteor 1-19 Rocket 4.4 04:26:28 10° N 04:32:18 75° E 04:37:04 16° SSE
Skynet4D Del rocket 3.6 04:34:27 46° SW 04:35:36 55° S 04:41:06 10° E
NOSS 2-2 (E) 3.9 04:35:27 44° W 04:36:00 48° WNW 04:40:24 10° NNE
Meteor 1-11 Rocket 4.0 04:35:08 40° SW 04:36:58 56° W 04:42:50 10° N
Cosmos 1633 2.3 04:37:17 77° W 04:37:21 77° W 04:40:58 10° N
EO 1 Del DPAF 3.1 04:36:38 58° S 04:37:21 82° W 04:41:15 10° NNW
MOS 1-B 4.3 04:31:36 10° NNE 04:37:26 82° WNW 04:40:08 34° SSW
Sakura Rocket 3.9 04:37:07 41° SSW 04:37:47 43° SSW 04:44:12 10° SE
Cosmos 1954 Rocket 3.9 04:33:35 10° NNW 04:38:45 87° WSW 04:42:40 18° SSE
Cosmos 1892 Rocket 4.1 04:37:15 10° N 04:41:32 57° E 04:44:53 16° SSE
Cosmos 1934 Rocket 4.5 04:39:43 34° WSW 04:41:32 42° W 04:47:24 10° N
SME Rocket 2.8 04:40:12 28° SSE 04:42:09 80° ENE 04:45:56 10° NNW
Cosmos 1153 Rocket 4.5 04:41:18 25° S 04:45:15 89° W 04:51:40 10° N
USA 129 3.9 04:48:31 25° E 04:48:41 25° ENE 04:50:32 10° NNE
OAO 3 Copernicus 4.2 04:46:57 39° SW 04:48:46 76° SSE 04:53:48 10° ENE
SL-16 R/B 2.5 04:44:08 19° S 04:48:47 67° WSW 04:55:00 10° NNW
Meteor 1-13 Rocket 4.4 04:43:28 10° NNW 04:48:58 52° W 04:51:41 29° SSW
Cosmos 1356 3.4 04:48:44 59° SW 04:49:12 70° W 04:52:44 10° N
Cosmos 1400 Rocket 2.7 04:49:37 49° SW 04:50:29 67° W 04:54:21 10° N
USA 234 3.8 04:50:41 19° S 04:54:19 32° SW 05:00:01 10° WNW
ARIANE 5 R/B 3.5 04:53:00 10° NNW 04:57:14 28° WNW 04:58:39 24° W
Hubble Space Telescope 1.8 04:58:17 28° S 04:58:17 28° S 05:01:24 10° SE
Delta 2 Rocket 4.2 04:54:29 25° WSW 04:58:03 47° SSW 05:03:51 10° ESE
MTI 3.7 04:58:10 43° SSW 04:59:04 67° W 05:02:22 10° NNW
Yuri Rocket 3.3 04:56:54 27° WSW 04:59:43 66° S 05:04:07 10° E
COSMOS 2487 2.6 04:58:47 10° NNW 05:02:25 76° ENE 05:06:00 10° SSE
CZ-4B R/B 3.7 05:00:22 10° NNE 05:04:51 56° E 05:08:53 12° S
Okean O Rocket 1.5 05:01:05 10° N 05:05:26 83° WNW 05:08:10 22° SSW
PAYLOAD B 4.3 05:04:13 10° NNE 05:09:49 85° ESE 05:14:53 13° SSW
CZ-2D R/B 3.1 05:08:21 10° N 05:13:05 31° WNW 05:15:48 20° WSW
Meteor 1-23 Rocket 4.2 05:07:32 10° NNW 05:13:12 66° W 05:18:45 10° S
Cosmos 1315 Rocket 2.9 05:12:24 24° SSW 05:14:42 59° W 05:18:44 10° N
Cosmos 1844 Rocket 4.4 05:13:11 14° W 05:15:43 18° WNW 05:19:35 10° NNW
NOSS 5 (C) 4.4 05:15:58 24° SSW 05:17:59 81° ESE 05:21:08 10° NNE
Okean 2 3.4 05:15:54 10° NNW 05:19:56 60° W 05:23:52 11° S
CZ-2D R/B 4.2 05:18:52 10° N 05:22:28 33° WNW 05:24:31 20° WSW
CENTAUR R/B 3.1 05:14:33 10° NW 05:22:34 72° WSW 05:30:49 10° SSE
OAO 2 Rocket 4.0 05:20:04 14° W 05:23:43 32° SSW 05:28:09 10° SSE
Cosmos 2016 Rocket 4.2 05:18:09 10° S 05:24:28 77° E 05:30:45 10° N
Cosmos 1331 Rocket 4.0 05:20:41 12° SSW 05:25:34 86° ESE 05:30:49 10° NNE
Cosmos 1455 Rocket 3.8 05:24:32 19° SW 05:27:04 35° W 05:31:11 10° NNW
Cosmos 1975 2.8 05:23:37 10° S 05:27:36 85° E 05:31:37 10° N
Cosmos 2297 3.8 05:23:51 16° SSW 05:28:19 63° WNW 05:33:57 10° NNE
Cosmos 1461 4.4 05:26:05 16° WSW 05:28:49 27° WNW 05:32:48 10° N
CZ-4B DEB 4.2 05:24:35 10° N 05:30:08 73° WNW 05:35:39 10° SSW
Cosmos 2278 Rocket 3.3 05:28:32 16° WSW 05:32:02 28° WNW 05:36:51 10° N
Cosmos 1626 Rocket 3.7 05:28:13 10° N 05:32:35 76° E 05:36:59 10° S
Tiangong 1 0.9 05:33:27 10° WNW 05:36:30 62° SW 05:39:32 10° SE
MOZ.5/SAFIR/RUBIN 5/SL-8 3.8 05:32:30 10° S 05:37:15 73° WSW 05:42:03 10° NNW
Cosmos 1346 Rocket 4.3 05:34:32 10° N 05:38:22 40° E 05:42:08 10° SSE
CSL-04 DEB 4.4 05:35:07 10° NNE 05:39:19 89° WNW 05:43:22 10° SSW
Cosmos 1140 Rocket 4.2 05:35:12 10° NW 05:39:42 31° W 05:44:11 10° SSW
ADEOS Rocket 4.2 05:35:42 10° NNE 05:40:51 39° E 05:46:16 10° SSE
Cosmos 2285 Rocket 4.5 05:35:33 10° S 05:41:42 62° ESE 05:47:54 10° NNE
Cosmos 1850 Rocket 4.4 05:38:15 10° NNW 05:43:09 41° WSW 05:48:03 10° S
PSLV R/B 3.8 05:39:30 10° NNE 05:43:43 71° E 05:47:54 10° S
Cosmos 1741 Rocket 4.4 05:38:47 10° NNW 05:43:44 42° WSW 05:48:37 10° S
ATLAS 5 CENTAUR R/B 2.8 05:43:11 10° NNW 05:49:20 74° ENE 05:55:49 10° SE
Orbus 7S 4.4 05:47:02 12° SW 05:49:24 34° SSE 05:54:52 10° E
Cosmos 2173 Rocket 4.4 05:44:11 10° SSW 05:49:56 44° W 05:55:45 10° N
APEX 3.6 05:48:50 13° WSW 05:50:51 28° WNW 05:53:29 10° N
Cosmos 1802 Rocket 4.2 05:45:01 10° SSW 05:50:58 51° W 05:56:56 10° N
CZ-4B R/B 3.9 05:46:05 10° N 05:51:19 40° WNW 05:56:33 10° SW
ASC 2 Rocket 3.8 05:48:26 11° WSW 05:51:57 32° S 05:55:37 10° ESE
BREEZE M DEB (TANK) 4.0 05:36:30 10° NW 05:52:25 56° WSW 05:56:36 10° SSE
Cosmos 2082 Rocket 2.7 05:50:23 10° NNW 05:56:06 69° ENE 06:01:45 10° SSE
OTV 4 0.8 05:55:41 10° WNW 05:58:29 41° SSW 06:01:16 10° SE
Cosmos 1743 3.4 05:55:24 10° S 05:59:09 58° E 06:02:55 10° NNE
Cosmos 1606 Rocket 4.3 05:55:53 10° S 06:00:14 58° E 06:04:34 10° NNE
Feng Yun 1-1 Rocket 4.4 05:54:34 10° N 06:00:30 79° WNW 06:06:18 10° SSW
Cosmos 1302 Rocket 4.0 05:55:45 10° SSW 06:00:56 76° WNW 06:06:10 10° NNE
Cosmos 2098 Rocket 2.6 05:58:47 10° S 06:01:49 72° E 06:05:26 10° N
Atlas Centaur 2 4.5 06:00:42 10° SSW 06:07:07 24° SSE 06:13:05 10° E
BREEZE M DEB (TANK) 3.6 06:04:42 10° NW 06:14:25 64° SW 06:17:41 10° SSE
